Regional Weather Roundup
Issued by NWS

Home | Current Version | Previous Version | Graphics & Text | Print | Product List | Glossary Off
Versions: 1 2 3 4 5 6 7 8 9 10 11 12 13 14 15 16 17 18 19 20 21 22 23 24 25 26 27 28 29 30 31 32 33 34 35 36 37 38 39 40 41 42 43 44 45 46 47 48 49 50

000
ASUS43 KDMX 270907
RWRIA

WEATHER ROUNDUP FOR IOWA
NATIONAL WEATHER SERVICE DES MOINES IA
400 AM CDT WED AUG 27 2014

NOTE: "FAIR" INDICATES FEW OR NO CLOUDS BELOW 12,000 FEET WITH NO
SIGNIFICANT WEATHER AND/OR OBSTRUCTIONS TO VISIBILITY.

* - THESE STATIONS ARE NOT NWS STATIONS...THUS NOT UNDER NWS
QUALITY CONTROL.  THEY ALSO DO NOT REPORT WEATHER SUCH
AS PRECIPITATION OR FOG.

IAZ001>003-012>014-020>022-031>034-043>046-271000-
   NORTHWEST IOWA

CITY           SKY/WX    TMP DP  RH WIND       PRES   REMARKS
CARROLL *      CLOUDY    63  63 100 N3        30.14S
CHEROKEE *     MOCLDY    59  59 100 N3        30.17R
DENISON *      CLOUDY    63  63 100 NE5       30.12S
LE MARS *      CLOUDY    61  59  94 CALM      30.16F
ORANGE CITY *  PTCLDY    61  55  82 NE6       30.17F
SHELDON *      CLEAR     55  55 100 E3        30.17S
SIOUX CITY     CLOUDY    65  60  84 NE5       30.14S
SPENCER        CLOUDY    59  56  89 CALM      30.18S
STORM LAKE *   CLOUDY    63  61  94 NE7       30.16S
$$

IAZ055>058-069>071-079>083-090>094-271000-
   SOUTHWEST IOWA

CITY           SKY/WX    TMP DP  RH WIND       PRES   REMARKS
ATLANTIC *     CLOUDY    66  64  94 CALM      30.12S
AUDUBON *      CLEAR     66  64  94 CALM      30.14S
CLARINDA *     LGT RAIN  68  68 100 CALM      30.12F
COUNCIL BLFS * CLOUDY    68  68 100 E6        30.11S
CRESTON *      CLOUDY    66  66 100 SE6       30.13S
HARLAN  *      CLOUDY    64  64 100 NE5       30.15F
LAMONI         CLEAR     68  65  90 NE6       30.10F
RED OAK *      MOCLDY    68  66  94 E7        30.12S
SHENANDOAH *   CLOUDY    70  68  94 NE6       30.10S
$$

IAZ047>049-059>061-072>074-084-271000-
   CENTRAL IOWA

CITY           SKY/WX    TMP DP  RH WIND       PRES   REMARKS
AMES           CLOUDY    66  63  90 NE3       30.14S
ANKENY *       CLEAR     66  64  94 CALM      30.13S
CHARITON *     CLOUDY    66  64  94 NE6       30.12S
DES MOINES     PTCLDY    69  62  78 NE6       30.12S
GRINNELL*      RAIN      66  63  88 NE6       30.13F
KNOXVILLE *    CLEAR     68  63  83 E6        30.11F
MARSHALLTOWN   MOCLDY    65  63  93 E3        30.14F
PELLA *        PTCLDY    66  64  94 CALM      30.12F
PERRY *        MOCLDY    66  64  94 CALM      30.13S
$$

IAZ004>006-015-016-023>025-035-036-271000-
   NORTH CENTRAL IOWA

CITY           SKY/WX    TMP DP  RH WIND       PRES   REMARKS
ALGONA *       CLEAR     57  57 100 CALM      30.18R
CLARION *      MOCLDY    61  59  94 NE6       30.16S
ESTHERVILLE    PTCLDY    57  55  93 CALM      30.18R
FORT DODGE *   MOCLDY    63  59  88 E5        30.16S
MASON CITY     CLEAR     56  55  97 CALM      30.19S
FOREST CITY *  CLEAR     57  57 100 CALM      30.17F
IOWA FALLS *   CLOUDY    63  59  88 CALM      30.17S
$$

IAZ007>011-017>019-026>030-037>042-050>054-066-271000-
   NORTHEAST IOWA

CITY           SKY/WX    TMP DP  RH WIND       PRES   REMARKS
CEDAR RAPIDS   LGT RAIN  67  64  90 NE7       30.14R
CHARLES CITY * CLEAR     59  57  94 NE3       30.17F
CLINTON *      CLOUDY    66  63  88 NE7       30.15F
DECORAH *      CLEAR     59  57  94 CALM      30.16F
DUBUQUE        CLOUDY    64  60  87 NE8       30.15F
MONTICELLO *   MOCLDY    64  63  94 CALM      30.14S
OELWEIN *      CLEAR     61  59  94 NE5       30.17S
WATERLOO       CLEAR     62  59  90 NE3       30.14S
$$

IAZ064-065-067-068-078-271000-
   EAST CENTRAL IOWA

CITY           SKY/WX    TMP DP  RH WIND       PRES   REMARKS
DAVENPORT      MOCLDY    68  64  87 NE6       30.13F
IOWA CITY      CLOUDY    69  63  81 NE6       30.14S
MT. PLEASANT * PTCLDY    68  66  94 NE5       30.11F
MUSCATINE *    MOCLDY    68  64  88 CALM      30.12S
QUAD CITIES    MOCLDY    71  64  78 NE7       30.11F
$$

IAZ062-063-075>077-085>089-095>099-271000-
   SOUTHEAST IOWA

CITY           SKY/WX    TMP DP  RH WIND       PRES   REMARKS
BURLINGTON     PTCLDY    71  68  90 NE7       30.11S
FAIRFIELD *    CLEAR     66  64  94 NE6       30.12S
FORT MADISON * MOCLDY    70  70 100 NE5       30.11F
KEOKUK *       CLOUDY    70  68  94 CALM      30.10F
OSKALOOSA *      N/A     64  64 100 N6        30.12S
CENTERVILLE *  CLEAR     66  66 100 NE3       30.12F
OTTUMWA        CLEAR     66  64  93 NE6       30.12S
WASHINGTON *   PTCLDY    66  66 100 NE5       30.12S
$$

ABBREVIATIONS USED IN REMARKS
   TC - TEMPERATURES IN CELSIUS
  WCI - WIND CHILL INDEX
   HX - HEAT INDEX
  VSB - VISIBILITY
$$




USA.gov is the U.S. government's official web portal to all federal, state and local government web resources and services.